Flag for Switzerland Weather past 2 weeks in Köniz, Bern, Switzerland

Now
34 °F

Snow flurries. Partly sunny.


Feels Like: 25 °F
Forecast: 15 / 32 °F
Wind: 12 mph from West

Location: Bern / Belp

Current Time: Feb 1, 2015 at 5:45:44 PM

Latest Report: Feb 1, 2015 at 5:20 PM


Visibility: N/A

Pressure: 29.45 "Hg

Humidity: 75%

Dew point: 27 °F

Location of KönizLocation

Historic Weather in Köniz — Graph

°F

Köniz temperature yesterday

Maximum temperature yesterday: 39 °F (at 1:50 PM)
Minimum temperature yesterday: 21 °F (at 8:20 AM)
Average temperature yesterday: 32 °F

Past Weeks' High & Low Weather Summary

 TemperatureHumidityPressure
High43 °F (Jan 29, 3:20 AM)100% (Jan 17, 4:20 PM)30.39 "Hg (Jan 17, 4:20 PM)
Low19 °F (Jan 28, 7:20 AM)56% (Jan 30, 4:20 PM)28.88 "Hg (Jan 29, 11:20 PM)
Average32 °F87%29.82 "Hg
* Reported Jan 17 4:20 PM — Feb 1 4:50 PM, Köniz, Weather by CustomWeather, © 2014

Note: Actual official high and low records may vary slightly from our data, if they occured in-between our weather recording intervals... More about our weather records

Advertising

Köniz weather history for previous 24 hours

 ConditionsComfort  
Time TempWeatherWind HumidityBarometerVisibility
4:50 PM
Feb 1
34 °FSprinkles. Broken clouds.12 mph81%29.45 "Hg5 mi
4:20 PM34 °FLight snow. Broken clouds.13 mph81%29.45 "HgN/A
3:50 PM32 °FSnow flurries. Broken clouds.7 mph93%29.42 "Hg3 mi
3:20 PM36 °FLight snow. Broken clouds.9 mph70%29.42 "Hg3 mi
2:50 PM36 °FBroken clouds.13 mph70%29.39 "HgN/A
2:20 PM36 °FPartly sunny.13 mph70%29.39 "HgN/A
1:50 PM34 °FSnow showers. Partly sunny.10 mph87%29.36 "Hg1 mi
1:20 PM34 °FSnow flurries. Broken clouds.14 mph81%29.36 "Hg3 mi
12:50 PM34 °FSnow flurries. Broken clouds.3 mph81%29.36 "Hg3 mi
12:20 PM34 °FSnow flurries. Broken clouds.2 mph81%29.36 "Hg3 mi
11:50 AM34 °FSnow flurries. Partly sunny.5 mph75%29.36 "Hg3 mi
11:20 AM34 °FPartly sunny.3 mph75%29.33 "HgN/A
10:50 AM34 °FBroken clouds.3 mph75%29.33 "HgN/A
10:20 AM34 °FPartly sunny.8 mph75%29.33 "HgN/A
9:50 AM32 °FScattered clouds.10 mph80%29.30 "HgN/A
9:20 AM32 °FLight snow. Broken clouds.18 mph87%29.30 "HgN/A
8:50 AM30 °FSnow flurries. Partly sunny.7 mph93%29.27 "Hg4 mi
8:20 AM30 °FSnow showers. Broken clouds.3 mph100%29.27 "Hg1 mi
7:50 AM30 °FLight snow. Partly cloudy.5 mph93%29.24 "Hg2 mi
7:20 AM32 °FSnow. Partly cloudy.3 mph87%29.24 "Hg2 mi
6:50 AM32 °FLight snow. Overcast.9 mph87%29.24 "Hg2 mi
6:20 AM32 °FSnow. Dense fog.9 mph87%29.24 "Hg1 mi
5:50 AM32 °FSnow. Passing clouds.6 mph87%29.24 "Hg1 mi
5:20 AM32 °FLight snow. Passing clouds.6 mph87%29.21 "Hg1 mi
4:50 AM30 °FLight snow. Passing clouds.1 mph93%29.21 "Hg2 mi
4:20 AM28 °FSprinkles. Overcast.2 mph100%29.21 "HgN/A
3:50 AM30 °FSnow flurries. Passing clouds.5 mph93%29.21 "Hg2 mi
3:20 AM30 °FPassing clouds.6 mph86%29.21 "HgN/A
2:50 AM27 °FPassing clouds.7 mph93%29.18 "HgN/A
2:20 AM28 °FPassing clouds.7 mph86%29.21 "HgN/A
1:50 AM30 °FPartly cloudy.7 mph93%29.21 "HgN/A
1:20 AM32 °FPassing clouds.2 mph87%29.21 "HgN/A
12:50 AM30 °FPassing clouds.2 mph93%29.21 "HgN/A
12:20 AM30 °FPassing clouds.2 mph93%29.21 "HgN/A
11:50 PM
Jan 31
27 °FIce fog.2 mph100%29.21 "Hg1 mi
11:20 PM28 °FIce fog.3 mph100%29.21 "Hg1 mi
10:50 PM30 °FSnow flurries. Partly cloudy.2 mph100%29.21 "Hg3 mi
10:20 PM30 °FIce fog.1 mph100%29.21 "Hg2 mi
9:50 PM32 °FSnow. Passing clouds.3 mph93%29.18 "Hg1 mi
9:20 PM32 °FSnow showers. Dense fog.1 mph100%29.18 "Hg1 mi
8:50 PM32 °FSnow showers. Passing clouds.3 mph100%29.18 "Hg1 mi
8:20 PM32 °FSnow flurries. Partly cloudy.3 mph93%29.18 "Hg4 mi
7:50 PM32 °FSnow flurries. Mostly cloudy.5 mph93%29.18 "Hg4 mi
7:20 PM32 °FPassing clouds.5 mph93%29.15 "HgN/A
6:50 PM32 °FLight snow. Mostly cloudy.5 mph93%29.15 "Hg1 mi
6:20 PM32 °FSnow. Passing clouds.5 mph93%29.15 "Hg1 mi
5:50 PM32 °FSnow. Dense fog.3 mph93%29.15 "Hg1 mi
5:20 PM32 °FSnow. Broken clouds.2 mph93%29.12 "Hg1 mi
Weather by CustomWeather, © 2014

See weather overviewHow to use our weather pages